EW5449 Weather Reports


Display with metric or nautical units.
time (UTC)temp
F
wind
direction
speed
MPH
gust
MPH
rain 1hr
in
rain 24hr
in
rain mn
in
humidity
%
barometer
mb
20260903183010 89 202 0.0 5.0 0.00 0.00 0.00 61 1014.6
20260903181512 87 129 0.0 3.0 0.00 0.00 0.00 62 1014.7
20260903180013 86 159 1.0 4.0 0.00 0.00 0.00 63 1015.1
20260903174504 86 205 1.0 3.0 0.00 0.00 0.00 65 1015.5
20260903173003 86 186 0.0 3.0 0.00 0.00 0.00 63 1015.8
20260903171613 85 246 0.0 2.0 0.00 0.00 0.00 67 1016.0
20260903170056 83 191 0.0 2.0 0.00 0.00 0.00 70 1016.2
20260903164621 82 258 0.0 2.0 0.00 0.00 0.00 71 1016.7
20260903163058 82 262 0.0 2.0 0.00 0.00 0.00 72 1017.0
20260903161550 81 279 0.0 2.0 0.00 0.00 0.00 74 1016.9
20260903160053 81 28 0.0 2.0 0.00 0.00 0.00 73 1017.4
20260903154551 81 344 1.0 6.0 0.00 0.00 0.00 75 1017.3
20260903153048 81 321 2.0 9.0 0.00 0.00 0.00 75 1017.3
20260903151544 80 327 1.0 3.0 0.00 0.00 0.00 77 1017.4
20260903150041 79 187 0.0 2.0 0.00 0.00 0.00 79 1016.7
20260903144544 78 177 0.0 2.0 0.00 0.00 0.00 80 1016.9
20260903143044 77 345 0.0 2.0 0.00 0.00 0.00 82 1017.1
20260903141535 76 198 0.0 2.0 0.00 0.00 0.00 83 1017.1
20260903140039 76 165 0.0 2.0 0.00 0.00 0.00 84 1016.6
20260903134529 75 212 0.0 2.0 0.00 0.00 0.00 86 1016.8
20260903133028 74 238 0.0 2.0 0.00 0.00 0.00 87 1017.0
20260903131528 73 171 0.0 2.0 0.00 0.00 0.00 89 1016.8
20260903130026 73 228 0.0 2.0 0.00 0.00 0.00 90 1017.4
20260903124526 72 259 0.0 2.0 0.00 0.00 0.00 89 1017.6
20260903123026 72 342 0.0 2.0 0.00 0.00 0.00 90 1018.1
20260903121531 72 346 0.0 1.0 0.00 0.00 0.00 90 1017.8
20260903120036 72 345 0.0 2.0 0.00 0.00 0.00 91 1017.6
20260903114522 71 341 0.0 3.0 0.00 0.00 0.00 91 1017.6
20260903113026 71 331 0.0 2.0 0.00 0.00 0.00 91 1017.3
20260903111518 71 338 0.0 9.0 0.00 0.00 0.00 91 1017.1
20260903110018 71 348 1.0 8.0 0.00 0.00 0.00 91 1017.0
20260903104514 71 340 1.0 5.0 0.00 0.00 0.00 91 1016.7
20260903103012 71 347 0.0 3.0 0.00 0.00 0.00 91 1016.0
20260903101520 72 338 1.0 2.0 0.00 0.00 0.00 90 1015.6
20260903100020 72 171 0.0 2.0 0.00 0.00 0.00 90 1014.9
20260903094520 72 171 0.0 0.0 0.00 0.00 0.00 90 1014.9
20260903093007 72 171 0.0 0.0 0.00 0.00 0.00 89 1015.0
20260903091507 72 171 0.0 1.0 0.00 0.00 0.00 89 1014.9
20260903090005 73 171 0.0 2.0 0.00 0.00 0.00 89 1014.9
20260903084507 73 171 0.0 0.0 0.00 0.00 0.00 89 1014.9
20260903083002 73 171 0.0 0.0 0.00 0.00 0.00 88 1014.9
20260903081502 73 171 0.0 0.0 0.00 0.00 0.00 87 1014.9
20260903074558 74 171 0.0 2.0 0.00 0.00 0.00 87 1014.8
20260903073058 74 169 0.0 2.0 0.00 0.00 0.00 87 1014.8
20260903071628 74 169 0.0 2.0 0.00 0.00 0.00 87 1014.9
20260903070058 74 168 0.0 2.0 0.00 0.00 0.00 87 1014.8
20260903064559 74 161 0.0 2.0 0.00 0.00 0.00 87 1014.7
20260903063054 74 160 0.0 2.0 0.00 0.00 0.00 87 1014.6
20260903061553 74 161 0.0 2.0 0.00 0.00 0.00 87 1014.8
20260903060059 74 158 0.0 2.0 0.00 0.00 0.00 86 1014.9
20260903054550 75 157 0.0 2.0 0.00 0.00 0.00 86 1015.0
20260903053050 75 154 0.0 2.0 0.00 0.00 0.00 86 1015.2
20260903051607 75 176 0.0 2.0 0.00 0.00 0.00 86 1015.2
20260903050051 75 162 0.0 2.0 0.00 0.00 0.00 85 1015.2
20260903044545 75 188 0.0 2.0 0.00 0.00 0.00 86 1015.4
20260903043139 75 176 0.0 2.0 0.00 0.00 0.00 86 1015.5
20260903041541 75 175 0.0 2.0 0.00 0.00 0.00 86 1015.5
20260903040038 75 175 0.0 2.0 0.00 0.00 0.00 87 1015.6
20260903034541 75 175 0.0 2.0 0.00 0.00 0.00 87 1015.6
20260903033036 75 178 0.0 2.0 0.00 0.00 0.00 87 1015.6
20260903031536 75 188 0.0 2.0 0.00 0.00 0.00 87 1015.6
20260903030036 75 176 0.0 2.0 0.00 0.00 0.00 86 1015.6
20260903024536 75 179 0.0 2.0 0.00 0.00 0.00 85 1015.6
20260903023035 75 181 0.0 2.0 0.00 0.00 0.00 84 1015.4
20260903021536 75 184 0.0 2.0 0.00 0.00 0.00 83 1015.3
20260903020033 75 171 0.0 2.0 0.00 0.00 0.00 82 1015.4
20260903014533 76 171 0.0 1.0 0.00 0.00 0.00 81 1015.5
20260903013035 76 168 0.0 2.0 0.00 0.00 0.00 81 1015.4
20260903011531 76 198 0.0 2.0 0.00 0.00 0.00 80 1015.4
20260903010030 76 119 0.0 1.0 0.00 0.00 0.00 79 1015.7
20260903004533 77 119 0.0 0.0 0.00 0.00 0.00 80 1015.8
20260903003029 77 119 0.0 0.0 0.00 0.00 0.00 79 1015.8
20260903001528 77 119 0.0 2.0 0.00 0.00 0.00 79 1015.8
20260903000027 77 119 0.0 0.0 0.00 0.00 0.00 78 1016.1
20260902234526 78 119 0.0 2.0 0.00 0.00 0.00 77 1016.3
20260902233026 78 119 0.0 2.0 0.00 0.00 0.00 76 1015.8
20260902231531 79 163 0.0 2.0 0.00 0.00 0.00 74 1015.8
20260902230025 80 127 0.0 3.0 0.00 0.00 0.00 72 1016.0
20260902224531 80 267 0.0 2.0 0.00 0.00 0.00 76 1016.0
20260902223026 80 273 0.0 2.0 0.00 0.00 0.00 77 1015.8
20260902221522 81 273 0.0 1.0 0.00 0.00 0.00 76 1015.6
20260902220021 82 259 0.0 2.0 0.00 0.00 0.00 73 1015.5
20260902214520 83 258 0.0 2.0 0.00 0.00 0.00 71 1015.6
20260902213019 83 259 0.0 1.0 0.00 0.00 0.00 68 1015.9
20260902211519 82 74 0.0 2.0 0.00 0.00 0.00 70 1016.0
20260902210021 82 101 0.0 2.0 0.00 0.00 0.00 71 1016.1
20260902204521 82 98 0.0 2.0 0.00 0.00 0.00 70 1016.0
20260902203020 82 51 0.0 2.0 0.00 0.00 0.00 70 1016.2
20260902201519 81 100 0.0 2.0 0.00 0.00 0.00 72 1016.2
20260902200026 79 336 0.0 3.0 0.00 0.00 0.00 75 1016.4
20260902194521 78 97 0.0 2.0 0.00 0.00 0.00 75 1016.8
20260902193015 78 262 0.0 2.0 0.00 0.00 0.00 77 1017.0
20260902191516 79 343 0.0 2.0 0.00 0.00 0.00 75 1017.0
20260902190027 78 336 0.0 6.0 0.00 0.00 0.00 76 1016.0
20260902184517 78 333 1.0 5.0 0.00 0.00 0.00 75 1016.7